Notices

What's New in latest Release from April 7th, 2021:

- Updated Glossary, including Speed of Maximum Gust, and Total Hourly Precipitation

- Updated national and regional climate services offices contacts and prices information

- Addition of station inventory lists for 1981-2010, 1971-2000, and 1961-1990 Normals.

If you haven't already, please take our survey and provide feedback about our website: https://eccc.sondage-survey.ca/f/LanguageSelection.aspx?s=442ca660-fcf1-47c0-95a9-59707d6fd709

Hourly Data Report for April 07, 2003

TORONTO CITY
ONTARIO

43°40'00.000" N
79°24'00.000" W
112.50 m
6158355
71508
XTO

Download Data

Hourly Data (April 2003)
Hourly Data Report for April 7, 2003
TIME
LST
Temp Definition
°C
Dew Point Definition
°C
Rel Hum Definition
%
Precip. Amount Definition
mm

Wind Dir Definition
10's deg

Wind Spd Definition
km/h
Visibility Definition
km
Stn Press Definition
kPa
Hmdx Definition


Wind Chill Definition


Weather Definition


00:00 -3.0 -9.8 59   LegendMM LegendMM LegendMM 102.04     LegendNANA
01:00 -3.2 -9.7 61   LegendMM LegendMM LegendMM 102.09     LegendNANA
02:00 -3.0 -10.9 54   LegendMM LegendMM LegendMM 102.02     LegendNANA
03:00 -2.7 -11.0 53   LegendMM LegendMM LegendMM 101.98     LegendNANA
04:00 -2.7 -9.7 59   LegendMM LegendMM LegendMM 101.95     LegendNANA
05:00 -1.9 -7.1 68   LegendMM LegendMM LegendMM 101.89     LegendNANA
06:00 -2.2 -7.6 66   LegendMM LegendMM LegendMM 101.88     LegendNANA
07:00 -2.5 -8.9 61   LegendMM LegendMM LegendMM 101.95     LegendNANA
08:00 -1.9 -7.3 67   LegendMM LegendMM LegendMM 101.96     LegendNANA
09:00 -2.0 -8.2 62   LegendMM LegendMM LegendMM 101.89     LegendNANA
10:00 -2.2 -8.4 62   LegendMM LegendMM LegendMM 101.90     LegendNANA
11:00 -2.0 -8.2 62   LegendMM LegendMM LegendMM 101.94     LegendNANA
12:00 -1.6 -8.7 58   LegendMM LegendMM LegendMM 101.86     LegendNANA
13:00 -1.5 -8.8 57   LegendMM LegendMM LegendMM 101.73     LegendNANA
14:00 -1.4 -10.6 50   LegendMM LegendMM LegendMM 101.82     LegendNANA
15:00 -2.3 -6.0 76   LegendMM LegendMM LegendMM 101.66     LegendNANA
16:00 -3.0 -4.5 89   LegendMM LegendMM LegendMM 101.60     LegendNANA
17:00 -1.7 -4.8 79   LegendMM LegendMM LegendMM 101.45     LegendNANA
18:00 -1.6 -5.4 75   LegendMM LegendMM LegendMM 101.48     LegendNANA
19:00 -1.7 -4.6 81   LegendMM LegendMM LegendMM 101.49     LegendNANA
20:00 -1.9 -3.9 86   LegendMM LegendMM LegendMM 101.47     LegendNANA
21:00 -2.4 -3.3 94   LegendMM LegendMM LegendMM 101.52     LegendNANA
22:00 -3.2 -4.0 94   LegendMM LegendMM LegendMM 101.47     LegendNANA
23:00 -3.0 -3.9 93   LegendMM LegendMM LegendMM 101.43     LegendNANA

Notes on Data Quality.

Legend

  • E = Estimated
  • M = Missing
  • NA = Not Available*
  • [empty] = Indicates an unobserved value
Date modified: